Regional Weather Roundup
Issued by NWS Sterling, VA

Home | Current Version | Previous Version | Text Only | Print | Product List | Glossary Off
Versions: 1 2 3 4 5 6 7 8 9 10 11 12 13 14 15 16 17 18 19 20 21 22 23 24 25 26 27 28 29 30 31 32 33 34 35 36 37 38 39 40 41 42 43 44 45 46 47 48 49 50

854
ASUS41 KLWX 301310
RWRLWX

REGIONAL WEATHER ROUNDUP
NATIONAL WEATHER SERVICE BALTIMORE MD/WASHINGTON DC
900 AM EDT SAT APR 30 2016

Note: "FAIR" indicates few or no clouds below 12,000 feet
with no significant weather and/or obstructions to visibility.
 TC=TEMPERATURE CELSIUS

 * =Non NWS site. Station does not report precipitation (e.g. rain,
    snow, etc.), thunder, or fog.

DCZ001-MDZ009-015-VAZ040>042-051-053>054-301400-
WASHINGTON METRO

CITY           SKY/WX    TMP DP  RH WIND       PRES   REMARKS
WASHINGTON NAT CLOUDY    52  46  80 E8        30.20R
DULLES         CLOUDY    51  49  92 E5        30.19S FOG
ANDREWS AFB    CLOUDY    50  46  87 NE6       30.18R
FT BELVOIR     CLOUDY    52  47  83 VRB1      30.20R
QUANTICO       CLOUDY    54  49  83 E9        30.21R
COLLEGE PARK*  CLOUDY    50  45  81 E3        30.19S
LEESBURG*      CLOUDY    52  52 100 E6        30.20S FOG
MANASSAS*      CLOUDY    54  52  94 CALM      30.19R
GAITHERSBURG*  CLOUDY    48  45  87 CALM      30.23S

$$

MDZ006>007-011-014-301400-
BALTIMORE METRO

CITY           SKY/WX    TMP DP  RH WIND       PRES   REMARKS
BWI AIRPORT    CLOUDY    50  44  80 NE8       30.20R
MD SCIENCE CTR   N/A     50  43  77 MISG      30.21R
MARTIN STATE   PTSUNNY   52  48  87 NE3       30.22
ANNAPOLIS      CLOUDY    51  46  83 MISG      30.20S
FORT MEADE*    CLOUDY    50  45  81 NE6       30.22S

$$

MDZ012-015-019>023-301400-
MARYLAND EASTERN SHORE

CITY           SKY/WX    TMP DP  RH WIND       PRES   REMARKS
OCEAN CITY     CLOUDY    51  47  86 NE16G22   30.18R
SALISBURY      CLOUDY    51  48  89 NE13      30.17S
CAMBRIDGE*     CLOUDY    50  46  87 NE5       30.18R
EASTON*        CLOUDY   N/A N/A N/A NE9       30.23R

$$

MDZ017>025-301400-
SOUTHERN MARYLAND

CITY           SKY/WX    TMP DP  RH WIND       PRES   REMARKS
PATUXENT RIVER CLOUDY    51  47  86 NE6       30.19R
ST INIGOES       N/A    N/A N/A N/A MISG        N/A
LEONARDTOWN*   CLOUDY    50  46  87 E5        30.20R

$$

MDZ003>005-301400-
NORTH CENTRAL MARYLAND

CITY           SKY/WX    TMP DP  RH WIND       PRES   REMARKS
FREDERICK*     CLOUDY    48  48 100 N8        30.22R FOG
HAGERSTOWN APT CLOUDY    50  45  83 E6        30.19R HAZE
WESTMINSTER*   CLOUDY    46  45  93 E3        30.19S FOG

$$

MDZ501>502-301400-
WESTERN MARYLAND

CITY           SKY/WX    TMP DP  RH WIND       PRES   REMARKS
OAKLAND*       CLOUDY    45  45 100 SE15      30.12S FOG
CUMBERLAND*    CLOUDY    52  50  93 CALM      30.20S

$$

VAZ025>031-301400-
SHENANDOAH VALLEY

CITY           SKY/WX    TMP DP  RH WIND       PRES   REMARKS
WINCHESTER*    FOG       52  50  93 NE5       30.17S VSB 3/4
FRONT ROYAL*   CLOUDY    52  50  93 CALM      30.16S
LURAY*         CLOUDY    52  52 100 NE6       30.16S FOG
NEW MARKET*    CLOUDY    52  51  95 NE3       30.15S
STAUNTON*      CLOUDY    55  55 100 CALM      30.17R FOG
WAYNESBORO*    CLOUDY    52  50  93 MISG      30.15S

$$

WVZ021-048>050-054>055-301400-
EASTERN WEST VIRGINIA PANHANDLE

CITY           SKY/WX    TMP DP  RH WIND       PRES   REMARKS
MARTINSBURG    CLOUDY    50  48  93 NE6       30.18S FOG
PETERSBURG*    CLOUDY    54  51  90 CALM      30.16R FOG

$$

VAZ036>039-050-301400-
CENTRAL FOOTHILLS

CITY           SKY/WX    TMP DP  RH WIND       PRES   REMARKS
CHARLOTTESVILL CLOUDY    55  50  83 E5        30.16S
CULPEPER*      CLOUDY    54  52  93 E3        30.19S FOG
ORANGE*        CLOUDY    54  54 100 CALM      30.18F
GORDONSVILLE*  CLOUDY    53  52  95 CALM      30.16S
WARRENTON*     CLOUDY    54  47  78 E6        30.18S

$$

VAZ055>057-301400-
NORTH AND CENTRAL PIEDMONT

CITY           SKY/WX    TMP DP  RH WIND       PRES   REMARKS
FREDERICKSBRG* CLOUDY    54  53  95 NE6       30.18S
STAFFORD*      CLOUDY    52  49  89 NE6       30.23S

$$

NCZ024-NYZ072-PAZ021-071-VAZ022-071-301400-
OTHER REGIONAL OBSERVATIONS

CITY           SKY/WX    TMP DP  RH WIND       PRES   REMARKS
NEW YORK CITY  CLOUDY    51  37  58 VRB3      30.24S
PHILADELPHIA   CLOUDY    51  39  63 NE8       30.23R
PITTSBURGH     PTSUNNY   49  43  80 NE7       30.12F
ROANOKE        DRIZZLE   55  54  96 SE8       30.15S FOG
RICHMOND       PTSUNNY   53  49  86 NE7       30.17S
RALEIGH        CLOUDY    59  56  89 E9        30.13S

$$

ANZ530>537-301400-
MARINE OBSERVATIONS

STATION/POSITION TIME  TEMP    WIND        PRES
                       AIR SEA DIR/SP/G
                 (UTC) (F)     (DEG/KT/KT) (MB)
THOMAS PT LIGHT  1300   50 57   50/  9/ 10 1023.6R
BALT KEY BRIDGE  1200   49      30/  9/ 11 1022.4R
COVE POINT       1200   49      70/  8/ 10 1022.4R
LEWISETTA        1200   52 59   70/  7/ 10 1021.3R
SOLOMONS ISLAND  1200   51 60   40/  7/ 11   N/A
PINEY POINT      1200           50/  6/  8   N/A

$$





USA.gov is the U.S. government's official web portal to all federal, state and local government web resources and services.